Time,TemperatureF,DewpointF,PressureIn,WindDirection,WindDirectionDegrees,WindSpeedMPH,WindSpeedGustMPH,Humidity,HourlyPrecipIn,Conditions,Clouds,dailyrainin,SoftwareType,DateUTC
2013-09-16 00:00:00,73.6,65.6,29.81,SSW,211,7.0,14.0,76,0.00,,,0.00,VWS V14.01,2013-09-15 22:00:00,
2013-09-16 00:03:00,73.6,65.2,29.81,SW,221,7.0,14.0,75,0.00,,,0.00,VWS V14.01,2013-09-15 22:03:00,
2013-09-16 00:08:00,73.6,65.6,29.81,SSW,204,5.0,6.0,76,0.00,,,0.00,VWS V14.01,2013-09-15 22:08:00,
2013-09-16 00:10:00,73.5,66.2,29.80,SSW,202,7.0,15.0,78,0.00,,,0.00,VWS V14.01,2013-09-15 22:10:00,
2013-09-16 00:13:00,73.5,65.9,29.81,SW,227,13.0,13.0,77,0.00,,,0.00,VWS V14.01,2013-09-15 22:13:00,
2013-09-16 00:18:00,73.4,66.1,29.80,SW,227,11.0,11.0,78,0.00,,,0.00,VWS V14.01,2013-09-15 22:18:00,
2013-09-16 00:20:00,73.1,65.8,29.80,SSW,207,7.0,18.0,78,0.00,,,0.00,VWS V14.01,2013-09-15 22:20:00,
2013-09-16 00:23:00,73.2,65.9,29.81,WSW,248,7.0,18.0,78,0.00,,,0.00,VWS V14.01,2013-09-15 22:23:00,
2013-09-16 00:28:00,73.1,65.5,29.80,SSW,211,9.0,13.0,77,0.00,,,0.00,VWS V14.01,2013-09-15 22:28:00,
2013-09-16 00:30:00,73.2,65.2,29.80,SSW,210,7.0,16.0,76,0.00,,,0.00,VWS V14.01,2013-09-15 22:30:00,
2013-09-16 00:33:00,73.1,65.5,29.80,WSW,242,7.0,13.0,77,0.00,,,0.00,VWS V14.01,2013-09-15 22:33:00,
2013-09-16 00:38:00,73.2,65.6,29.80,SSW,192,7.0,7.0,77,0.00,,,0.00,VWS V14.01,2013-09-15 22:38:00,
2013-09-16 00:40:00,73.0,65.0,29.80,South,180,7.0,13.0,76,0.00,,,0.00,VWS V14.01,2013-09-15 22:40:00,
2013-09-16 00:43:00,73.1,65.5,29.80,SSW,207,6.0,11.0,77,0.00,,,0.00,VWS V14.01,2013-09-15 22:43:00,
2013-09-16 00:48:00,73.1,65.1,29.80,SW,231,6.0,7.0,76,0.00,,,0.00,VWS V14.01,2013-09-15 22:48:00,
2013-09-16 00:50:00,73.0,64.2,29.79,SW,228,4.0,11.0,74,0.00,,,0.00,VWS V14.01,2013-09-15 22:50:00,
2013-09-16 00:53:00,73.0,64.6,29.79,WSW,245,7.0,11.0,75,0.00,,,0.00,VWS V14.01,2013-09-15 22:53:00,
2013-09-16 00:58:00,73.0,64.2,29.79,SW,222,12.0,12.0,74,0.00,,,0.00,VWS V14.01,2013-09-15 22:58:00,
2013-09-16 01:00:00,73.0,63.8,29.79,WSW,240,10.0,13.0,73,0.00,,,0.00,VWS V14.01,2013-09-15 23:00:00,
2013-09-16 01:03:00,73.1,64.3,29.79,WSW,248,6.0,13.0,74,0.00,,,0.00,VWS V14.01,2013-09-15 23:03:00,
2013-09-16 01:08:00,73.0,64.2,29.79,WSW,240,7.0,11.0,74,0.00,,,0.00,VWS V14.01,2013-09-15 23:08:00,
2013-09-16 01:10:00,72.8,64.0,29.79,WNW,283,3.0,11.0,74,0.00,,,0.00,VWS V14.01,2013-09-15 23:10:00,
2013-09-16 01:13:00,73.0,64.2,29.79,WSW,252,8.0,11.0,74,0.00,,,0.00,VWS V14.01,2013-09-15 23:13:00,
2013-09-16 01:18:00,72.8,64.0,29.79,WSW,246,8.0,8.0,74,0.00,,,0.00,VWS V14.01,2013-09-15 23:18:00,
2013-09-16 01:20:00,72.8,64.0,29.79,WSW,242,8.0,14.0,74,0.00,,,0.00,VWS V14.01,2013-09-15 23:20:00,
2013-09-16 01:23:00,72.8,64.0,29.79,West,266,4.0,14.0,74,0.00,,,0.00,VWS V14.01,2013-09-15 23:23:00,
2013-09-16 01:28:00,72.8,64.0,29.79,WSW,246,7.0,8.0,74,0.00,,,0.00,VWS V14.01,2013-09-15 23:28:00,
2013-09-16 01:30:00,72.7,64.3,29.78,WSW,252,4.0,9.0,75,0.00,,,0.00,VWS V14.01,2013-09-15 23:30:00,
2013-09-16 01:33:00,72.7,63.9,29.78,WSW,242,7.0,9.0,74,0.00,,,0.00,VWS V14.01,2013-09-15 23:33:00,
2013-09-16 01:38:00,72.7,64.3,29.78,WSW,239,6.0,7.0,75,0.00,,,0.00,VWS V14.01,2013-09-15 23:38:00,
2013-09-16 01:40:00,72.8,64.4,29.79,WSW,252,8.0,13.0,75,0.00,,,0.00,VWS V14.01,2013-09-15 23:40:00,
2013-09-16 01:43:00,72.8,64.4,29.79,WSW,238,5.0,11.0,75,0.00,,,0.00,VWS V14.01,2013-09-15 23:43:00,
2013-09-16 01:48:00,72.8,64.4,29.78,SW,234,7.0,8.0,75,0.00,,,0.00,VWS V14.01,2013-09-15 23:48:00,
2013-09-16 01:50:00,72.9,64.5,29.78,SW,221,9.0,13.0,75,0.00,,,0.00,VWS V14.01,2013-09-15 23:50:00,
2013-09-16 01:53:00,72.9,64.5,29.78,SW,228,13.0,13.0,75,0.00,,,0.00,VWS V14.01,2013-09-15 23:53:00,
2013-09-16 01:58:00,72.9,64.5,29.78,WSW,238,9.0,10.0,75,0.00,,,0.00,VWS V14.01,2013-09-15 23:58:00,
2013-09-16 02:00:00,73.0,65.0,29.77,WSW,241,7.0,15.0,76,0.00,,,0.00,VWS V14.01,2013-09-16 00:00:00,
2013-09-16 02:03:00,73.0,65.0,29.78,WSW,252,5.0,15.0,76,0.00,,,0.00,VWS V14.01,2013-09-16 00:03:00,
2013-09-16 02:08:00,73.0,65.0,29.77,SW,228,10.0,10.0,76,0.00,,,0.00,VWS V14.01,2013-09-16 00:08:00,
2013-09-16 02:10:00,73.2,65.6,29.77,WNW,288,5.0,17.0,77,0.00,,,0.00,VWS V14.01,2013-09-16 00:10:00,
2013-09-16 02:13:00,73.2,65.2,29.77,West,269,12.0,17.0,76,0.00,,,0.00,VWS V14.01,2013-09-16 00:13:00,
2013-09-16 02:18:00,73.1,65.5,29.77,NW,304,14.0,14.0,77,0.00,,,0.00,VWS V14.01,2013-09-16 00:18:00,
2013-09-16 02:20:00,72.9,64.9,29.77,West,281,5.0,15.0,76,0.00,,,0.00,VWS V14.01,2013-09-16 00:20:00,
2013-09-16 02:23:00,72.9,64.9,29.77,West,267,10.0,15.0,76,0.00,,,0.00,VWS V14.01,2013-09-16 00:23:00,
2013-09-16 02:28:00,72.8,65.2,29.76,WNW,293,4.0,5.0,77,0.00,,,0.00,VWS V14.01,2013-09-16 00:28:00,
2013-09-16 02:30:00,73.0,65.4,29.75,West,265,5.0,12.0,77,0.00,,,0.00,VWS V14.01,2013-09-16 00:30:00,
2013-09-16 02:33:00,72.9,65.3,29.76,West,266,11.0,12.0,77,0.00,,,0.00,VWS V14.01,2013-09-16 00:33:00,
2013-09-16 02:38:00,73.0,65.4,29.75,WSW,258,13.0,13.0,77,0.00,,,0.00,VWS V14.01,2013-09-16 00:38:00,
2013-09-16 02:40:00,73.1,65.1,29.75,West,266,10.0,28.0,76,0.00,,,0.00,VWS V14.01,2013-09-16 00:40:00,
2013-09-16 02:43:00,73.0,65.7,29.75,West,277,17.0,17.0,78,0.00,,,0.00,VWS V14.01,2013-09-16 00:43:00,
2013-09-16 02:48:00,73.0,65.0,29.75,West,279,15.0,15.0,76,0.00,,,0.00,VWS V14.01,2013-09-16 00:48:00,
2013-09-16 02:50:00,71.7,63.7,29.75,WNW,285,17.0,28.0,76,0.02,,,0.02,VWS V14.01,2013-09-16 00:50:00,
2013-09-16 02:53:00,71.9,64.7,29.76,West,279,21.0,24.0,78,0.02,,,0.02,VWS V14.01,2013-09-16 00:53:00,
2013-09-16 02:58:00,71.8,63.8,29.75,WNW,288,19.0,22.0,76,0.02,,,0.02,VWS V14.01,2013-09-16 00:58:00,
2013-09-16 03:00:00,71.2,63.3,29.75,WNW,300,10.0,22.0,76,0.02,,,0.02,VWS V14.01,2013-09-16 01:00:00,
2013-09-16 03:03:00,71.4,63.5,29.75,NW,304,11.0,22.0,76,0.02,,,0.02,VWS V14.01,2013-09-16 01:03:00,
2013-09-16 03:08:00,71.2,63.3,29.75,NW,313,11.0,12.0,76,0.02,,,0.02,VWS V14.01,2013-09-16 01:08:00,
2013-09-16 03:10:00,71.6,62.9,29.75,West,279,13.0,21.0,74,0.02,,,0.02,VWS V14.01,2013-09-16 01:10:00,
2013-09-16 03:13:00,71.3,63.0,29.76,WNW,297,16.0,16.0,75,0.02,,,0.02,VWS V14.01,2013-09-16 01:13:00,
2013-09-16 03:18:00,71.6,62.9,29.75,West,280,14.0,14.0,74,0.02,,,0.02,VWS V14.01,2013-09-16 01:18:00,
2013-09-16 03:20:00,71.8,63.5,29.75,WNW,288,9.0,21.0,75,0.02,,,0.02,VWS V14.01,2013-09-16 01:20:00,
2013-09-16 03:23:00,71.9,63.2,29.75,WNW,292,7.0,18.0,74,0.02,,,0.02,VWS V14.01,2013-09-16 01:23:00,
2013-09-16 03:28:00,71.8,63.8,29.75,NW,310,14.0,16.0,76,0.02,,,0.02,VWS V14.01,2013-09-16 01:28:00,
2013-09-16 03:30:00,71.8,63.8,29.75,WNW,285,10.0,24.0,76,0.02,,,0.02,VWS V14.01,2013-09-16 01:30:00,
2013-09-16 03:38:00,71.7,63.7,29.75,WNW,299,10.0,10.0,76,0.02,,,0.02,VWS V14.01,2013-09-16 01:38:00,
2013-09-16 03:40:00,70.8,63.6,29.75,NNW,329,7.0,21.0,78,0.02,,,0.02,VWS V14.01,2013-09-16 01:40:00,
2013-09-16 03:43:00,71.5,63.9,29.75,North,355,9.0,21.0,77,0.02,,,0.02,VWS V14.01,2013-09-16 01:43:00,
2013-09-16 03:48:00,70.8,64.0,29.75,North,355,12.0,15.0,79,0.02,,,0.02,VWS V14.01,2013-09-16 01:48:00,
2013-09-16 03:50:00,70.4,63.9,29.75,NNE,25,8.0,16.0,80,0.02,,,0.02,VWS V14.01,2013-09-16 01:50:00,
2013-09-16 03:53:00,70.7,63.9,29.75,NW,309,11.0,16.0,79,0.02,,,0.02,VWS V14.01,2013-09-16 01:53:00,
2013-09-16 03:58:00,70.2,63.8,29.75,North,360,10.0,11.0,80,0.00,,,0.02,VWS V14.01,2013-09-16 01:58:00,
2013-09-16 04:00:00,69.8,63.7,29.75,NNE,15,8.0,12.0,81,0.00,,,0.02,VWS V14.01,2013-09-16 02:00:00,
2013-09-16 04:03:00,69.8,63.7,29.75,NNW,336,9.0,12.0,81,0.00,,,0.02,VWS V14.01,2013-09-16 02:03:00,
2013-09-16 04:08:00,69.8,63.7,29.75,North,355,8.0,8.0,81,0.00,,,0.02,VWS V14.01,2013-09-16 02:08:00,
2013-09-16 04:10:00,70.1,63.7,29.75,NW,314,6.0,14.0,80,0.00,,,0.02,VWS V14.01,2013-09-16 02:10:00,
2013-09-16 04:13:00,70.0,63.9,29.75,WNW,303,12.0,14.0,81,0.00,,,0.02,VWS V14.01,2013-09-16 02:13:00,
2013-09-16 04:18:00,70.2,63.8,29.75,NNW,348,5.0,8.0,80,0.00,,,0.02,VWS V14.01,2013-09-16 02:18:00,
2013-09-16 04:20:00,70.0,63.9,29.75,NNW,340,7.0,12.0,81,0.00,,,0.02,VWS V14.01,2013-09-16 02:20:00,
2013-09-16 04:23:00,70.1,63.7,29.75,NNW,342,7.0,11.0,80,0.00,,,0.02,VWS V14.01,2013-09-16 02:23:00,
2013-09-16 04:28:00,70.0,63.9,29.75,NNW,340,3.0,7.0,81,0.00,,,0.02,VWS V14.01,2013-09-16 02:28:00,
2013-09-16 04:30:00,69.9,63.5,29.74,NW,325,5.0,10.0,80,0.00,,,0.02,VWS V14.01,2013-09-16 02:30:00,
2013-09-16 04:33:00,69.9,63.5,29.74,NNW,336,7.0,10.0,80,0.00,,,0.02,VWS V14.01,2013-09-16 02:33:00,
2013-09-16 04:38:00,69.9,63.5,29.74,NNW,344,2.0,6.0,80,0.00,,,0.02,VWS V14.01,2013-09-16 02:38:00,
2013-09-16 04:40:00,69.6,63.5,29.74,North,360,6.0,12.0,81,0.00,,,0.02,VWS V14.01,2013-09-16 02:40:00,
2013-09-16 04:43:00,69.8,63.4,29.74,North,355,8.0,12.0,80,0.00,,,0.02,VWS V14.01,2013-09-16 02:43:00,
2013-09-16 04:48:00,69.6,63.5,29.74,NNW,347,10.0,10.0,81,0.00,,,0.02,VWS V14.01,2013-09-16 02:48:00,
2013-09-16 04:50:00,69.5,63.4,29.74,North,355,3.0,10.0,81,0.00,,,0.02,VWS V14.01,2013-09-16 02:50:00,
2013-09-16 04:53:00,69.6,63.5,29.74,NNW,341,4.0,10.0,81,0.00,,,0.02,VWS V14.01,2013-09-16 02:53:00,
2013-09-16 04:58:00,69.5,63.4,29.74,North,350,3.0,4.0,81,0.00,,,0.02,VWS V14.01,2013-09-16 02:58:00,
2013-09-16 05:00:00,69.2,63.1,29.74,NNW,333,5.0,9.0,81,0.00,,,0.02,VWS V14.01,2013-09-16 03:00:00,
2013-09-16 05:03:00,69.3,63.2,29.74,North,360,5.0,8.0,81,0.00,,,0.02,VWS V14.01,2013-09-16 03:03:00,
2013-09-16 05:08:00,69.2,63.1,29.74,NNW,336,3.0,5.0,81,0.00,,,0.02,VWS V14.01,2013-09-16 03:08:00,
2013-09-16 05:10:00,69.4,63.0,29.74,NNW,329,6.0,10.0,80,0.00,,,0.02,VWS V14.01,2013-09-16 03:10:00,
2013-09-16 05:13:00,69.4,63.3,29.74,North,355,7.0,10.0,81,0.00,,,0.02,VWS V14.01,2013-09-16 03:13:00,
2013-09-16 05:18:00,69.4,63.0,29.74,NNW,329,6.0,6.0,80,0.00,,,0.02,VWS V14.01,2013-09-16 03:18:00,
2013-09-16 05:20:00,69.6,63.5,29.74,NNE,13,5.0,11.0,81,0.00,,,0.02,VWS V14.01,2013-09-16 03:20:00,
2013-09-16 05:23:00,69.4,63.3,29.74,NNW,339,11.0,11.0,81,0.00,,,0.02,VWS V14.01,2013-09-16 03:23:00,
2013-09-16 05:28:00,69.7,63.3,29.74,WNW,298,3.0,5.0,80,0.00,,,0.02,VWS V14.01,2013-09-16 03:28:00,
2013-09-16 05:30:00,69.8,63.0,29.74,NNW,344,6.0,15.0,79,0.00,,,0.02,VWS V14.01,2013-09-16 03:30:00,
2013-09-16 05:33:00,69.8,63.4,29.74,NNW,330,5.0,15.0,80,0.00,,,0.02,VWS V14.01,2013-09-16 03:33:00,
2013-09-16 05:38:00,69.7,62.9,29.74,NNW,327,10.0,10.0,79,0.00,,,0.02,VWS V14.01,2013-09-16 03:38:00,
2013-09-16 05:40:00,69.3,62.9,29.74,NNW,336,4.0,10.0,80,0.00,,,0.02,VWS V14.01,2013-09-16 03:40:00,
2013-09-16 05:43:00,69.5,63.1,29.74,NNW,342,5.0,10.0,80,0.00,,,0.02,VWS V14.01,2013-09-16 03:43:00,
2013-09-16 05:48:00,69.3,62.9,29.74,North,355,5.0,5.0,80,0.00,,,0.02,VWS V14.01,2013-09-16 03:48:00,
2013-09-16 05:50:00,69.2,62.8,29.74,NW,325,6.0,7.0,80,0.00,,,0.02,VWS V14.01,2013-09-16 03:50:00,
2013-09-16 05:53:00,69.2,62.8,29.74,NW,315,3.0,7.0,80,0.00,,,0.02,VWS V14.01,2013-09-16 03:53:00,
2013-09-16 05:58:00,69.2,62.8,29.74,NNW,327,8.0,8.0,80,0.00,,,0.02,VWS V14.01,2013-09-16 03:58:00,
2013-09-16 06:00:00,69.4,63.0,29.74,North,355,4.0,9.0,80,0.00,,,0.02,VWS V14.01,2013-09-16 04:00:00,
2013-09-16 06:01:00,69.3,62.9,29.74,North,349,3.0,9.0,80,0.00,,,0.02,VWS V14.01,2013-09-16 04:01:00,
2013-09-16 06:06:00,69.4,63.0,29.74,North,355,6.0,9.0,80,0.00,,,0.02,VWS V14.01,2013-09-16 04:06:00,
2013-09-16 06:10:00,69.1,62.7,29.74,NNW,328,6.0,9.0,80,0.00,,,0.02,VWS V14.01,2013-09-16 04:10:00,
2013-09-16 06:11:00,69.3,62.9,29.74,NNW,329,2.0,9.0,80,0.00,,,0.02,VWS V14.01,2013-09-16 04:11:00,
2013-09-16 06:16:00,69.1,62.7,29.74,North,355,2.0,9.0,80,0.00,,,0.02,VWS V14.01,2013-09-16 04:16:00,
2013-09-16 06:20:00,68.9,62.5,29.75,NNW,338,4.0,7.0,80,0.00,,,0.02,VWS V14.01,2013-09-16 04:20:00,
2013-09-16 06:21:00,68.9,62.5,29.74,NNW,336,4.0,6.0,80,0.00,,,0.02,VWS V14.01,2013-09-16 04:21:00,
2013-09-16 06:26:00,68.9,62.8,29.75,NNW,339,3.0,7.0,81,0.00,,,0.02,VWS V14.01,2013-09-16 04:26:00,
2013-09-16 06:30:00,68.7,62.6,29.74,NNW,343,2.0,6.0,81,0.00,,,0.02,VWS V14.01,2013-09-16 04:30:00,
2013-09-16 06:31:00,68.7,62.6,29.74,NNW,338,4.0,4.0,81,0.00,,,0.02,VWS V14.01,2013-09-16 04:31:00,
2013-09-16 06:36:00,68.7,62.6,29.74,NNW,343,3.0,6.0,81,0.00,,,0.02,VWS V14.01,2013-09-16 04:36:00,
2013-09-16 06:40:00,68.5,62.5,29.75,NNW,341,3.0,7.0,81,0.00,,,0.02,VWS V14.01,2013-09-16 04:40:00,
2013-09-16 06:41:00,68.7,62.6,29.75,NNW,341,2.0,7.0,81,0.00,,,0.02,VWS V14.01,2013-09-16 04:41:00,
2013-09-16 06:46:00,68.5,62.5,29.75,NNW,341,2.0,7.0,81,0.00,,,0.02,VWS V14.01,2013-09-16 04:46:00,
2013-09-16 06:50:00,68.4,62.3,29.75,NNW,341,1.0,4.0,81,0.00,,,0.02,VWS V14.01,2013-09-16 04:50:00,
2013-09-16 06:51:00,68.5,62.5,29.75,NNW,341,3.0,4.0,81,0.00,,,0.02,VWS V14.01,2013-09-16 04:51:00,
2013-09-16 06:56:00,68.4,62.3,29.75,NNW,341,1.0,4.0,81,0.00,,,0.02,VWS V14.01,2013-09-16 04:56:00,
2013-09-16 07:00:00,68.4,62.7,29.75,NNW,341,2.0,4.0,82,0.00,,,0.02,VWS V14.01,2013-09-16 05:00:00,
2013-09-16 07:01:00,68.5,62.8,29.75,NNW,341,2.0,4.0,82,0.00,,,0.02,VWS V14.01,2013-09-16 05:01:00,
2013-09-16 07:07:00,68.4,62.7,29.75,NNW,341,2.0,4.0,82,0.00,,,0.02,VWS V14.01,2013-09-16 05:07:00,
2013-09-16 07:10:00,68.5,62.8,29.75,NNW,336,1.0,4.0,82,0.00,,,0.02,VWS V14.01,2013-09-16 05:10:00,
2013-09-16 07:12:00,68.3,62.6,29.75,NNW,341,2.0,3.0,82,0.00,,,0.02,VWS V14.01,2013-09-16 05:12:00,
2013-09-16 07:17:00,68.5,62.8,29.75,NNW,336,3.0,4.0,82,0.00,,,0.02,VWS V14.01,2013-09-16 05:17:00,
2013-09-16 07:20:00,68.5,62.8,29.75,NNW,336,4.0,5.0,82,0.00,,,0.02,VWS V14.01,2013-09-16 05:20:00,
2013-09-16 07:22:00,68.4,62.7,29.75,NNW,336,0.0,4.0,82,0.00,,,0.02,VWS V14.01,2013-09-16 05:22:00,
2013-09-16 07:27:00,68.5,62.8,29.75,NNW,336,2.0,5.0,82,0.00,,,0.02,VWS V14.01,2013-09-16 05:27:00,
2013-09-16 07:30:00,68.8,63.1,29.75,NW,316,3.0,5.0,82,0.00,,,0.02,VWS V14.01,2013-09-16 05:30:00,
2013-09-16 07:32:00,68.7,63.0,29.75,NW,315,2.0,5.0,82,0.00,,,0.02,VWS V14.01,2013-09-16 05:32:00,
2013-09-16 07:37:00,68.7,63.0,29.75,NW,316,4.0,5.0,82,0.00,,,0.02,VWS V14.01,2013-09-16 05:37:00,
2013-09-16 07:40:00,69.2,63.5,29.76,NW,308,3.0,6.0,82,0.00,,,0.02,VWS V14.01,2013-09-16 05:40:00,
2013-09-16 07:42:00,68.9,63.2,29.75,NW,315,1.0,5.0,82,0.00,,,0.02,VWS V14.01,2013-09-16 05:42:00,
2013-09-16 07:47:00,69.1,63.4,29.76,NW,308,4.0,6.0,82,0.00,,,0.02,VWS V14.01,2013-09-16 05:47:00,
2013-09-16 07:50:00,69.5,63.8,29.76,NW,309,2.0,5.0,82,0.00,,,0.02,VWS V14.01,2013-09-16 05:50:00,
2013-09-16 07:52:00,69.4,63.7,29.75,NW,309,3.0,5.0,82,0.00,,,0.02,VWS V14.01,2013-09-16 05:52:00,
2013-09-16 07:57:00,69.5,63.8,29.76,NW,309,4.0,5.0,82,0.00,,,0.02,VWS V14.01,2013-09-16 05:57:00,
2013-09-16 08:00:00,70.1,64.0,29.76,NW,318,2.0,5.0,81,0.00,,,0.02,VWS V14.01,2013-09-16 06:00:00,
2013-09-16 08:02:00,69.8,64.1,29.76,NW,309,1.0,5.0,82,0.00,,,0.02,VWS V14.01,2013-09-16 06:02:00,
2013-09-16 08:07:00,70.0,63.9,29.76,NW,318,2.0,5.0,81,0.00,,,0.02,VWS V14.01,2013-09-16 06:07:00,
2013-09-16 08:10:00,70.4,64.3,29.77,WNW,296,3.0,7.0,81,0.00,,,0.02,VWS V14.01,2013-09-16 06:10:00,
2013-09-16 08:12:00,70.3,64.2,29.76,NW,312,2.0,5.0,81,0.00,,,0.02,VWS V14.01,2013-09-16 06:12:00,
2013-09-16 08:17:00,70.4,64.3,29.77,WNW,296,1.0,3.0,81,0.00,,,0.02,VWS V14.01,2013-09-16 06:17:00,
2013-09-16 08:20:00,70.6,63.8,29.77,West,275,7.0,8.0,79,0.00,,,0.02,VWS V14.01,2013-09-16 06:20:00,
2013-09-16 08:22:00,70.5,64.0,29.77,WNW,302,1.0,5.0,80,0.00,,,0.02,VWS V14.01,2013-09-16 06:22:00,
2013-09-16 08:27:00,70.6,63.8,29.77,West,275,7.0,8.0,79,0.00,,,0.02,VWS V14.01,2013-09-16 06:27:00,
2013-09-16 08:30:00,71.2,63.3,29.77,WNW,294,6.0,12.0,76,0.00,,,0.02,VWS V14.01,2013-09-16 06:30:00,
2013-09-16 08:32:00,70.9,63.3,29.77,West,276,7.0,9.0,77,0.00,,,0.02,VWS V14.01,2013-09-16 06:32:00,
2013-09-16 08:37:00,71.2,63.3,29.77,WNW,294,6.0,12.0,76,0.00,,,0.02,VWS V14.01,2013-09-16 06:37:00,
2013-09-16 08:40:00,71.7,63.7,29.77,West,277,4.0,12.0,76,0.00,,,0.02,VWS V14.01,2013-09-16 06:40:00,
2013-09-16 08:42:00,71.5,63.5,29.77,WNW,300,7.0,12.0,76,0.00,,,0.02,VWS V14.01,2013-09-16 06:42:00,
2013-09-16 08:47:00,71.7,63.7,29.77,West,277,4.0,12.0,76,0.00,,,0.02,VWS V14.01,2013-09-16 06:47:00,
2013-09-16 08:50:00,72.6,64.6,29.76,WNW,289,8.0,11.0,76,0.00,,,0.02,VWS V14.01,2013-09-16 06:50:00,
2013-09-16 08:52:00,72.0,63.7,29.77,WNW,285,6.0,11.0,75,0.00,,,0.02,VWS V14.01,2013-09-16 06:52:00,
2013-09-16 08:57:00,72.6,64.6,29.76,WNW,289,8.0,11.0,76,0.00,,,0.02,VWS V14.01,2013-09-16 06:57:00,
2013-09-16 09:00:00,71.9,63.2,29.76,West,275,9.0,15.0,74,0.00,,,0.02,VWS V14.01,2013-09-16 07:00:00,
2013-09-16 09:02:00,72.3,63.9,29.76,WNW,300,5.0,12.0,75,0.00,,,0.02,VWS V14.01,2013-09-16 07:02:00,
2013-09-16 09:07:00,71.9,63.2,29.76,West,274,11.0,15.0,74,0.00,,,0.02,VWS V14.01,2013-09-16 07:07:00,
2013-09-16 09:10:00,72.6,63.1,29.76,WSW,250,7.0,13.0,72,0.00,,,0.02,VWS V14.01,2013-09-16 07:10:00,
2013-09-16 09:12:00,71.9,62.8,29.75,WNW,287,7.0,13.0,73,0.00,,,0.02,VWS V14.01,2013-09-16 07:12:00,
2013-09-16 09:17:00,72.6,63.1,29.76,WSW,243,12.0,13.0,72,0.00,,,0.02,VWS V14.01,2013-09-16 07:17:00,
2013-09-16 09:20:00,72.0,63.3,29.75,WNW,287,18.0,21.0,74,0.00,,,0.02,VWS V14.01,2013-09-16 07:20:00,
2013-09-16 09:22:00,72.6,63.5,29.75,WSW,252,18.0,21.0,73,0.00,,,0.02,VWS V14.01,2013-09-16 07:22:00,
2013-09-16 09:27:00,72.0,63.3,29.75,West,277,13.0,21.0,74,0.00,,,0.02,VWS V14.01,2013-09-16 07:27:00,
2013-09-16 09:30:00,71.7,63.0,29.75,West,281,9.0,22.0,74,0.00,,,0.02,VWS V14.01,2013-09-16 07:30:00,
2013-09-16 09:32:00,71.6,63.3,29.76,West,268,14.0,22.0,75,0.00,,,0.02,VWS V14.01,2013-09-16 07:32:00,
2013-09-16 09:37:00,71.7,63.0,29.75,West,277,10.0,22.0,74,0.00,,,0.02,VWS V14.01,2013-09-16 07:37:00,
2013-09-16 09:40:00,72.1,63.4,29.75,NW,319,5.0,17.0,74,0.00,,,0.02,VWS V14.01,2013-09-16 07:40:00,
2013-09-16 09:42:00,71.9,63.5,29.75,West,272,11.0,17.0,75,0.00,,,0.02,VWS V14.01,2013-09-16 07:42:00,
2013-09-16 09:47:00,72.1,63.4,29.75,NW,319,5.0,17.0,74,0.00,,,0.02,VWS V14.01,2013-09-16 07:47:00,
2013-09-16 09:50:00,73.1,63.9,29.75,NW,310,8.0,18.0,73,0.00,,,0.02,VWS V14.01,2013-09-16 07:50:00,
2013-09-16 09:52:00,72.2,62.7,29.75,WSW,249,12.0,18.0,72,0.00,,,0.02,VWS V14.01,2013-09-16 07:52:00,
2013-09-16 09:57:00,73.0,63.8,29.75,WNW,283,14.0,18.0,73,0.00,,,0.02,VWS V14.01,2013-09-16 07:57:00,
2013-09-16 10:00:00,70.1,63.3,29.76,WNW,286,15.0,18.0,79,0.03,,,0.05,VWS V14.01,2013-09-16 08:00:00,
2013-09-16 10:02:00,70.9,62.2,29.76,WNW,286,4.0,18.0,74,0.03,,,0.05,VWS V14.01,2013-09-16 08:02:00,
2013-09-16 10:07:00,70.1,63.3,29.76,WNW,290,12.0,18.0,79,0.03,,,0.05,VWS V14.01,2013-09-16 08:07:00,
2013-09-16 10:10:00,70.5,63.7,29.76,WNW,297,7.0,16.0,79,0.03,,,0.05,VWS V14.01,2013-09-16 08:10:00,
2013-09-16 10:12:00,70.1,63.3,29.76,West,279,8.0,14.0,79,0.03,,,0.05,VWS V14.01,2013-09-16 08:12:00,
2013-09-16 10:17:00,70.5,63.7,29.76,WNW,297,7.0,16.0,79,0.03,,,0.05,VWS V14.01,2013-09-16 08:17:00,
2013-09-16 10:20:00,70.9,63.3,29.77,WNW,303,11.0,17.0,77,0.03,,,0.05,VWS V14.01,2013-09-16 08:20:00,
2013-09-16 10:22:00,70.7,63.5,29.76,WNW,299,7.0,17.0,78,0.03,,,0.05,VWS V14.01,2013-09-16 08:22:00,
2013-09-16 10:27:00,70.9,63.3,29.77,WNW,292,10.0,11.0,77,0.03,,,0.05,VWS V14.01,2013-09-16 08:27:00,
2013-09-16 10:30:00,71.0,64.2,29.77,NW,313,9.0,14.0,79,0.03,,,0.05,VWS V14.01,2013-09-16 08:30:00,
2013-09-16 10:32:00,71.3,63.7,29.77,WNW,288,7.0,14.0,77,0.03,,,0.05,VWS V14.01,2013-09-16 08:32:00,
2013-09-16 10:37:00,70.9,64.1,29.77,WNW,300,11.0,11.0,79,0.03,,,0.05,VWS V14.01,2013-09-16 08:37:00,
2013-09-16 10:40:00,70.9,64.4,29.77,WNW,285,14.0,15.0,80,0.03,,,0.05,VWS V14.01,2013-09-16 08:40:00,
2013-09-16 10:42:00,70.7,63.9,29.77,NW,307,4.0,15.0,79,0.03,,,0.05,VWS V14.01,2013-09-16 08:42:00,
2013-09-16 10:47:00,71.0,64.5,29.77,WNW,289,14.0,14.0,80,0.03,,,0.05,VWS V14.01,2013-09-16 08:47:00,
2013-09-16 10:50:00,71.7,64.1,29.77,West,274,8.0,17.0,77,0.03,,,0.05,VWS V14.01,2013-09-16 08:50:00,
2013-09-16 10:52:00,71.2,64.0,29.77,WNW,290,15.0,16.0,78,0.03,,,0.05,VWS V14.01,2013-09-16 08:52:00,
2013-09-16 10:57:00,71.8,64.2,29.77,WNW,303,8.0,8.0,77,0.03,,,0.05,VWS V14.01,2013-09-16 08:57:00,
2013-09-16 11:00:00,71.4,63.1,29.78,WNW,288,10.0,20.0,75,0.03,,,0.05,VWS V14.01,2013-09-16 09:00:00,
2013-09-16 11:02:00,72.0,63.7,29.77,NW,313,15.0,18.0,75,0.03,,,0.05,VWS V14.01,2013-09-16 09:02:00,
2013-09-16 11:07:00,71.4,63.1,29.78,WNW,288,10.0,20.0,75,0.03,,,0.05,VWS V14.01,2013-09-16 09:07:00,
2013-09-16 11:10:00,72.5,63.4,29.77,WSW,252,9.0,15.0,73,0.00,,,0.05,VWS V14.01,2013-09-16 09:10:00,
2013-09-16 11:12:00,71.9,63.5,29.77,NW,309,5.0,15.0,75,0.00,,,0.05,VWS V14.01,2013-09-16 09:12:00,
2013-09-16 11:17:00,72.5,63.4,29.77,West,281,8.0,9.0,73,0.00,,,0.05,VWS V14.01,2013-09-16 09:17:00,
2013-09-16 11:20:00,72.8,62.0,29.77,WNW,296,12.0,20.0,69,0.00,,,0.05,VWS V14.01,2013-09-16 09:20:00,
2013-09-16 11:22:00,72.4,62.1,29.77,WSW,250,5.0,17.0,70,0.00,,,0.05,VWS V14.01,2013-09-16 09:22:00,
2013-09-16 11:27:00,72.7,62.0,29.77,WNW,284,15.0,15.0,69,0.00,,,0.05,VWS V14.01,2013-09-16 09:27:00,
2013-09-16 11:30:00,73.1,63.2,29.77,West,264,6.0,17.0,71,0.00,,,0.05,VWS V14.01,2013-09-16 09:30:00,
2013-09-16 11:32:00,72.5,63.0,29.77,SW,214,13.0,17.0,72,0.00,,,0.05,VWS V14.01,2013-09-16 09:32:00,
2013-09-16 11:38:00,73.2,63.6,29.77,West,272,4.0,7.0,72,0.00,,,0.05,VWS V14.01,2013-09-16 09:38:00,
2013-09-16 11:40:00,74.2,64.2,29.77,North,351,6.0,13.0,71,0.00,,,0.05,VWS V14.01,2013-09-16 09:40:00,
2013-09-16 11:43:00,73.9,63.5,29.77,WNW,284,7.0,13.0,70,0.00,,,0.05,VWS V14.01,2013-09-16 09:43:00,
2013-09-16 11:48:00,74.0,63.6,29.77,WNW,284,6.0,10.0,70,0.00,,,0.05,VWS V14.01,2013-09-16 09:48:00,
2013-09-16 11:50:00,73.0,63.0,29.77,WNW,290,13.0,13.0,71,0.00,,,0.05,VWS V14.01,2013-09-16 09:50:00,
2013-09-16 11:52:00,72.6,63.1,29.77,WNW,298,3.0,12.0,72,0.00,,,0.05,VWS V14.01,2013-09-16 09:52:00,
2013-09-16 11:58:00,72.9,63.0,29.77,WSW,252,7.0,13.0,71,0.00,,,0.05,VWS V14.01,2013-09-16 09:58:00,
2013-09-16 12:00:00,73.4,63.8,29.77,NW,316,6.0,13.0,72,0.00,,,0.05,VWS V14.01,2013-09-16 10:00:00,
2013-09-16 12:03:00,72.9,63.8,29.77,WSW,252,6.0,13.0,73,0.00,,,0.05,VWS V14.01,2013-09-16 10:03:00,
2013-09-16 12:08:00,73.6,64.0,29.77,WNW,284,9.0,9.0,72,0.00,,,0.05,VWS V14.01,2013-09-16 10:08:00,
2013-09-16 12:10:00,74.3,63.5,29.77,West,269,12.0,14.0,69,0.00,,,0.05,VWS V14.01,2013-09-16 10:10:00,
2013-09-16 12:13:00,73.8,63.4,29.77,West,260,13.0,14.0,70,0.00,,,0.05,VWS V14.01,2013-09-16 10:13:00,
2013-09-16 12:18:00,74.5,64.1,29.77,WNW,284,15.0,15.0,70,0.00,,,0.05,VWS V14.01,2013-09-16 10:18:00,
2013-09-16 12:20:00,73.7,63.7,29.77,WSW,254,12.0,16.0,71,0.00,,,0.05,VWS V14.01,2013-09-16 10:20:00,
2013-09-16 12:23:00,74.0,63.6,29.76,WSW,237,9.0,15.0,70,0.00,,,0.05,VWS V14.01,2013-09-16 10:23:00,
2013-09-16 12:28:00,73.6,63.6,29.77,West,281,10.0,12.0,71,0.00,,,0.05,VWS V14.01,2013-09-16 10:28:00,
2013-09-16 12:30:00,73.9,64.3,29.76,WNW,302,9.0,16.0,72,0.00,,,0.05,VWS V14.01,2013-09-16 10:30:00,
2013-09-16 12:33:00,73.8,64.2,29.76,WSW,241,7.0,14.0,72,0.00,,,0.05,VWS V14.01,2013-09-16 10:33:00,
2013-09-16 12:38:00,73.7,64.1,29.76,West,259,10.0,14.0,72,0.00,,,0.05,VWS V14.01,2013-09-16 10:38:00,
2013-09-16 12:40:00,74.5,64.9,29.76,West,263,5.0,16.0,72,0.00,,,0.05,VWS V14.01,2013-09-16 10:40:00,
2013-09-16 12:43:00,73.8,64.2,29.77,WSW,251,7.0,16.0,72,0.00,,,0.05,VWS V14.01,2013-09-16 10:43:00,
2013-09-16 12:48:00,74.5,64.1,29.76,West,270,8.0,8.0,70,0.00,,,0.05,VWS V14.01,2013-09-16 10:48:00,
2013-09-16 12:50:00,74.7,64.3,29.76,WNW,284,5.0,13.0,70,0.00,,,0.05,VWS V14.01,2013-09-16 10:50:00,
2013-09-16 12:53:00,73.9,63.1,29.76,NW,307,5.0,13.0,69,0.00,,,0.05,VWS V14.01,2013-09-16 10:53:00,
2013-09-16 12:58:00,74.9,64.5,29.76,West,269,13.0,13.0,70,0.00,,,0.05,VWS V14.01,2013-09-16 10:58:00,
2013-09-16 13:00:00,74.5,63.3,29.77,WNW,283,10.0,17.0,68,0.00,,,0.05,VWS V14.01,2013-09-16 11:00:00,
2013-09-16 13:03:00,74.3,63.5,29.76,NW,310,14.0,14.0,69,0.00,,,0.05,VWS V14.01,2013-09-16 11:03:00,
2013-09-16 13:08:00,74.3,63.1,29.76,WNW,293,10.0,13.0,68,0.00,,,0.05,VWS V14.01,2013-09-16 11:08:00,
2013-09-16 13:10:00,74.3,63.5,29.77,West,281,8.0,15.0,69,0.00,,,0.05,VWS V14.01,2013-09-16 11:10:00,
2013-09-16 13:13:00,74.8,64.4,29.77,NW,304,8.0,14.0,70,0.00,,,0.05,VWS V14.01,2013-09-16 11:13:00,
2013-09-16 13:18:00,74.0,63.2,29.77,West,275,10.0,13.0,69,0.00,,,0.05,VWS V14.01,2013-09-16 11:18:00,
2013-09-16 13:20:00,74.9,64.5,29.76,NNW,329,9.0,14.0,70,0.00,,,0.05,VWS V14.01,2013-09-16 11:20:00,
2013-09-16 13:23:00,73.9,62.7,29.77,WNW,293,13.0,14.0,68,0.00,,,0.05,VWS V14.01,2013-09-16 11:23:00,
2013-09-16 13:28:00,74.8,64.0,29.76,WNW,299,12.0,12.0,69,0.00,,,0.05,VWS V14.01,2013-09-16 11:28:00,
2013-09-16 13:30:00,74.3,63.5,29.76,NNW,343,6.0,15.0,69,0.00,,,0.05,VWS V14.01,2013-09-16 11:30:00,
2013-09-16 13:33:00,74.9,63.6,29.76,WNW,300,14.0,14.0,68,0.00,,,0.05,VWS V14.01,2013-09-16 11:33:00,
2013-09-16 13:38:00,74.3,63.5,29.76,NW,311,3.0,6.0,69,0.00,,,0.05,VWS V14.01,2013-09-16 11:38:00,
2013-09-16 13:40:00,74.4,60.5,29.76,West,259,4.0,14.0,62,0.00,,,0.05,VWS V14.01,2013-09-16 11:40:00,
2013-09-16 13:43:00,74.4,60.5,29.76,West,274,10.0,14.0,62,0.00,,,0.05,VWS V14.01,2013-09-16 11:43:00,
2013-09-16 13:48:00,74.6,60.7,29.76,West,277,11.0,12.0,62,0.00,,,0.05,VWS V14.01,2013-09-16 11:48:00,
2013-09-16 13:50:00,75.0,60.2,29.75,West,279,7.0,14.0,60,0.00,,,0.05,VWS V14.01,2013-09-16 11:50:00,
2013-09-16 13:53:00,75.5,61.6,29.75,NNW,331,3.0,12.0,62,0.00,,,0.05,VWS V14.01,2013-09-16 11:53:00,
2013-09-16 13:58:00,74.9,60.6,29.75,WNW,293,9.0,9.0,61,0.00,,,0.05,VWS V14.01,2013-09-16 11:58:00,
2013-09-16 14:00:00,75.4,60.1,29.75,NW,317,11.0,15.0,59,0.00,,,0.05,VWS V14.01,2013-09-16 12:00:00,
2013-09-16 14:03:00,75.5,59.7,29.75,WNW,297,12.0,15.0,58,0.00,,,0.05,VWS V14.01,2013-09-16 12:03:00,
2013-09-16 14:08:00,75.5,60.7,29.75,NW,322,9.0,9.0,60,0.00,,,0.05,VWS V14.01,2013-09-16 12:08:00,
2013-09-16 14:10:00,75.0,60.7,29.75,NW,313,7.0,14.0,61,0.00,,,0.05,VWS V14.01,2013-09-16 12:10:00,
2013-09-16 14:13:00,75.4,61.5,29.76,West,275,1.0,14.0,62,0.00,,,0.05,VWS V14.01,2013-09-16 12:13:00,
2013-09-16 14:18:00,74.9,61.0,29.75,WNW,298,4.0,7.0,62,0.00,,,0.05,VWS V14.01,2013-09-16 12:18:00,
2013-09-16 14:20:00,75.3,59.5,29.75,WSW,254,7.0,17.0,58,0.00,,,0.05,VWS V14.01,2013-09-16 12:20:00,
2013-09-16 14:23:00,75.4,61.9,29.75,WSW,255,5.0,14.0,63,0.00,,,0.05,VWS V14.01,2013-09-16 12:23:00,
2013-09-16 14:28:00,75.2,60.4,29.76,West,276,4.0,10.0,60,0.00,,,0.05,VWS V14.01,2013-09-16 12:28:00,
2013-09-16 14:30:00,75.1,60.3,29.75,West,263,7.0,14.0,60,0.00,,,0.05,VWS V14.01,2013-09-16 12:30:00,
2013-09-16 14:33:00,74.6,59.8,29.75,West,266,10.0,14.0,60,0.00,,,0.05,VWS V14.01,2013-09-16 12:33:00,
2013-09-16 14:38:00,75.3,60.9,29.75,WSW,242,10.0,13.0,61,0.00,,,0.05,VWS V14.01,2013-09-16 12:38:00,
2013-09-16 14:40:00,75.4,60.6,29.75,WNW,286,12.0,17.0,60,0.00,,,0.05,VWS V14.01,2013-09-16 12:40:00,
2013-09-16 14:43:00,75.0,60.7,29.75,WNW,299,11.0,17.0,61,0.00,,,0.05,VWS V14.01,2013-09-16 12:43:00,
2013-09-16 14:48:00,75.5,60.7,29.75,WSW,238,10.0,12.0,60,0.00,,,0.05,VWS V14.01,2013-09-16 12:48:00,
2013-09-16 14:50:00,74.6,59.8,29.75,WSW,255,8.0,15.0,60,0.00,,,0.05,VWS V14.01,2013-09-16 12:50:00,
2013-09-16 14:53:00,75.0,60.2,29.75,West,259,11.0,15.0,60,0.00,,,0.05,VWS V14.01,2013-09-16 12:53:00,
2013-09-16 14:58:00,74.6,59.3,29.75,WSW,240,6.0,16.0,59,0.00,,,0.05,VWS V14.01,2013-09-16 12:58:00,
2013-09-16 15:00:00,75.0,60.7,29.75,WNW,284,11.0,18.0,61,0.00,,,0.05,VWS V14.01,2013-09-16 13:00:00,
2013-09-16 15:03:00,75.1,60.3,29.75,WNW,288,5.0,18.0,60,0.00,,,0.05,VWS V14.01,2013-09-16 13:03:00,
2013-09-16 15:08:00,74.6,60.3,29.75,WNW,292,10.0,18.0,61,0.00,,,0.05,VWS V14.01,2013-09-16 13:08:00,
2013-09-16 15:10:00,74.8,61.8,29.75,West,271,14.0,18.0,64,0.00,,,0.05,VWS V14.01,2013-09-16 13:10:00,
2013-09-16 15:13:00,74.2,61.2,29.75,West,263,12.0,18.0,64,0.00,,,0.05,VWS V14.01,2013-09-16 13:13:00,
2013-09-16 15:18:00,74.6,61.6,29.75,WSW,256,14.0,17.0,64,0.00,,,0.05,VWS V14.01,2013-09-16 13:18:00,
2013-09-16 15:20:00,74.6,61.6,29.75,WNW,290,12.0,18.0,64,0.00,,,0.05,VWS V14.01,2013-09-16 13:20:00,
2013-09-16 15:23:00,74.7,61.7,29.75,WSW,243,9.0,17.0,64,0.00,,,0.05,VWS V14.01,2013-09-16 13:23:00,
2013-09-16 15:28:00,74.5,61.5,29.75,WNW,284,11.0,15.0,64,0.00,,,0.05,VWS V14.01,2013-09-16 13:28:00,
2013-09-16 15:30:00,75.1,61.7,29.75,WNW,286,7.0,15.0,63,0.00,,,0.05,VWS V14.01,2013-09-16 13:30:00,
2013-09-16 15:33:00,74.8,61.8,29.74,West,271,7.0,15.0,64,0.00,,,0.05,VWS V14.01,2013-09-16 13:33:00,
2013-09-16 15:38:00,75.0,61.6,29.75,WNW,288,12.0,12.0,63,0.00,,,0.05,VWS V14.01,2013-09-16 13:38:00,
2013-09-16 15:40:00,75.1,61.7,29.75,SW,225,6.0,18.0,63,0.00,,,0.05,VWS V14.01,2013-09-16 13:40:00,
2013-09-16 15:43:00,74.3,60.5,29.75,NW,310,5.0,18.0,62,0.00,,,0.05,VWS V14.01,2013-09-16 13:43:00,
2013-09-16 15:48:00,75.4,61.9,29.75,West,272,3.0,6.0,63,0.00,,,0.05,VWS V14.01,2013-09-16 13:48:00,
2013-09-16 15:50:00,75.1,60.3,29.75,West,259,5.0,15.0,60,0.00,,,0.05,VWS V14.01,2013-09-16 13:50:00,
2013-09-16 15:53:00,75.9,62.0,29.74,WNW,290,4.0,13.0,62,0.00,,,0.05,VWS V14.01,2013-09-16 13:53:00,
2013-09-16 15:58:00,75.1,60.8,29.75,NW,313,12.0,14.0,61,0.00,,,0.05,VWS V14.01,2013-09-16 13:58:00,
2013-09-16 16:00:00,75.3,60.0,29.75,WSW,238,10.0,18.0,59,0.00,,,0.05,VWS V14.01,2013-09-16 14:00:00,
2013-09-16 16:03:00,75.3,60.5,29.74,WSW,240,11.0,18.0,60,0.00,,,0.05,VWS V14.01,2013-09-16 14:03:00,
2013-09-16 16:08:00,75.3,60.0,29.75,WSW,257,7.0,9.0,59,0.00,,,0.05,VWS V14.01,2013-09-16 14:08:00,
2013-09-16 16:10:00,75.5,62.0,29.75,West,279,5.0,19.0,63,0.00,,,0.05,VWS V14.01,2013-09-16 14:10:00,
2013-09-16 16:13:00,74.9,60.1,29.75,WNW,287,6.0,18.0,60,0.00,,,0.05,VWS V14.01,2013-09-16 14:13:00,
2013-09-16 16:18:00,75.3,61.4,29.75,WSW,250,9.0,23.0,62,0.00,,,0.05,VWS V14.01,2013-09-16 14:18:00,
2013-09-16 16:20:00,74.9,61.5,29.75,WNW,296,8.0,23.0,63,0.00,,,0.05,VWS V14.01,2013-09-16 14:20:00,
2013-09-16 16:23:00,75.6,62.1,29.75,WNW,301,8.0,23.0,63,0.00,,,0.05,VWS V14.01,2013-09-16 14:23:00,
2013-09-16 16:28:00,74.8,61.4,29.75,WSW,238,11.0,15.0,63,0.00,,,0.05,VWS V14.01,2013-09-16 14:28:00,
2013-09-16 16:30:00,74.2,61.2,29.75,SW,229,11.0,21.0,64,0.00,,,0.05,VWS V14.01,2013-09-16 14:30:00,
2013-09-16 16:33:00,74.3,60.9,29.75,West,267,13.0,21.0,63,0.00,,,0.05,VWS V14.01,2013-09-16 14:33:00,
2013-09-16 16:38:00,74.1,61.6,29.75,SW,235,12.0,15.0,65,0.00,,,0.05,VWS V14.01,2013-09-16 14:38:00,
2013-09-16 16:40:00,74.1,62.0,29.75,WSW,244,15.0,18.0,66,0.00,,,0.05,VWS V14.01,2013-09-16 14:40:00,
2013-09-16 16:43:00,74.2,61.2,29.75,NW,306,13.0,17.0,64,0.00,,,0.05,VWS V14.01,2013-09-16 14:43:00,
2013-09-16 16:48:00,73.9,62.3,29.75,WNW,289,10.0,20.0,67,0.00,,,0.05,VWS V14.01,2013-09-16 14:48:00,
2013-09-16 16:50:00,74.2,61.7,29.75,West,277,1.0,20.0,65,0.00,,,0.05,VWS V14.01,2013-09-16 14:50:00,
2013-09-16 16:53:00,74.5,62.4,29.75,NW,317,6.0,20.0,66,0.00,,,0.05,VWS V14.01,2013-09-16 14:53:00,
2013-09-16 16:58:00,74.4,62.3,29.75,NW,306,11.0,11.0,66,0.00,,,0.05,VWS V14.01,2013-09-16 14:58:00,
2013-09-16 17:00:00,74.4,61.4,29.75,WNW,302,9.0,17.0,64,0.00,,,0.05,VWS V14.01,2013-09-16 15:00:00,
2013-09-16 17:03:00,74.7,62.2,29.75,WNW,298,11.0,17.0,65,0.00,,,0.05,VWS V14.01,2013-09-16 15:03:00,
2013-09-16 17:08:00,74.5,61.5,29.75,West,273,5.0,9.0,64,0.00,,,0.05,VWS V14.01,2013-09-16 15:08:00,
2013-09-16 17:10:00,73.9,61.4,29.75,West,265,8.0,16.0,65,0.00,,,0.05,VWS V14.01,2013-09-16 15:10:00,
2013-09-16 17:13:00,74.2,61.7,29.75,West,273,8.0,16.0,65,0.00,,,0.05,VWS V14.01,2013-09-16 15:13:00,
2013-09-16 17:18:00,74.0,61.5,29.75,NW,324,10.0,12.0,65,0.00,,,0.05,VWS V14.01,2013-09-16 15:18:00,
2013-09-16 17:20:00,73.8,60.9,29.75,West,278,8.0,18.0,64,0.00,,,0.05,VWS V14.01,2013-09-16 15:20:00,
2013-09-16 17:23:00,73.9,61.0,29.75,West,273,14.0,18.0,64,0.00,,,0.05,VWS V14.01,2013-09-16 15:23:00,
2013-09-16 17:28:00,73.7,61.2,29.74,West,271,15.0,15.0,65,0.00,,,0.05,VWS V14.01,2013-09-16 15:28:00,
2013-09-16 17:30:00,73.8,61.3,29.74,West,267,13.0,15.0,65,0.00,,,0.05,VWS V14.01,2013-09-16 15:30:00,
2013-09-16 17:33:00,73.5,61.9,29.74,NW,312,3.0,15.0,67,0.00,,,0.05,VWS V14.01,2013-09-16 15:33:00,
2013-09-16 17:38:00,73.7,61.2,29.74,NW,304,4.0,13.0,65,0.00,,,0.05,VWS V14.01,2013-09-16 15:38:00,
2013-09-16 17:40:00,74.3,60.9,29.75,WNW,284,10.0,13.0,63,0.00,,,0.05,VWS V14.01,2013-09-16 15:40:00,
2013-09-16 17:43:00,73.9,61.0,29.75,West,261,5.0,13.0,64,0.00,,,0.05,VWS V14.01,2013-09-16 15:43:00,
2013-09-16 17:48:00,74.2,60.8,29.75,West,263,5.0,11.0,63,0.00,,,0.05,VWS V14.01,2013-09-16 15:48:00,
2013-09-16 17:50:00,73.9,60.5,29.75,WSW,242,12.0,16.0,63,0.00,,,0.05,VWS V14.01,2013-09-16 15:50:00,
2013-09-16 17:53:00,74.0,61.1,29.75,West,280,13.0,13.0,64,0.00,,,0.05,VWS V14.01,2013-09-16 15:53:00,
2013-09-16 17:58:00,73.9,60.5,29.75,West,265,10.0,12.0,63,0.00,,,0.05,VWS V14.01,2013-09-16 15:58:00,
2013-09-16 18:00:00,73.8,61.3,29.74,WNW,289,6.0,15.0,65,0.00,,,0.05,VWS V14.01,2013-09-16 16:00:00,
2013-09-16 18:03:00,73.7,60.8,29.75,WNW,290,8.0,15.0,64,0.00,,,0.05,VWS V14.01,2013-09-16 16:03:00,
2013-09-16 18:08:00,73.8,60.9,29.74,West,271,15.0,15.0,64,0.00,,,0.05,VWS V14.01,2013-09-16 16:08:00,
2013-09-16 18:10:00,73.1,60.7,29.74,NW,309,8.0,16.0,65,0.00,,,0.05,VWS V14.01,2013-09-16 16:10:00,
2013-09-16 18:13:00,73.3,61.3,29.75,WNW,297,11.0,16.0,66,0.00,,,0.05,VWS V14.01,2013-09-16 16:13:00,
2013-09-16 18:19:00,73.1,61.1,29.75,NW,319,4.0,12.0,66,0.00,,,0.05,VWS V14.01,2013-09-16 16:19:00,
2013-09-16 18:20:00,72.9,60.9,29.74,WNW,296,5.0,15.0,66,0.00,,,0.05,VWS V14.01,2013-09-16 16:20:00,
2013-09-16 18:24:00,73.4,61.4,29.74,West,259,8.0,12.0,66,0.00,,,0.05,VWS V14.01,2013-09-16 16:24:00,
2013-09-16 18:29:00,72.9,60.9,29.74,WNW,288,11.0,13.0,66,0.00,,,0.05,VWS V14.01,2013-09-16 16:29:00,
2013-09-16 18:30:00,72.8,61.2,29.75,NW,313,9.0,16.0,67,0.00,,,0.05,VWS V14.01,2013-09-16 16:30:00,
2013-09-16 18:34:00,72.7,61.1,29.75,NW,311,7.0,16.0,67,0.00,,,0.05,VWS V14.01,2013-09-16 16:34:00,
2013-09-16 18:39:00,72.8,61.2,29.75,West,270,13.0,13.0,67,0.00,,,0.05,VWS V14.01,2013-09-16 16:39:00,
2013-09-16 18:40:00,72.5,62.2,29.75,West,276,6.0,21.0,70,0.00,,,0.05,VWS V14.01,2013-09-16 16:40:00,
2013-09-16 18:44:00,72.7,62.0,29.75,West,265,13.0,21.0,69,0.00,,,0.05,VWS V14.01,2013-09-16 16:44:00,
2013-09-16 18:49:00,72.5,62.2,29.75,WNW,291,6.0,9.0,70,0.00,,,0.05,VWS V14.01,2013-09-16 16:49:00,
2013-09-16 18:50:00,72.0,61.7,29.75,NW,322,7.0,15.0,70,0.00,,,0.05,VWS V14.01,2013-09-16 16:50:00,
2013-09-16 18:54:00,72.3,62.0,29.75,WNW,296,10.0,12.0,70,0.00,,,0.05,VWS V14.01,2013-09-16 16:54:00,
2013-09-16 18:59:00,71.9,61.6,29.75,NW,321,10.0,12.0,70,0.00,,,0.05,VWS V14.01,2013-09-16 16:59:00,
2013-09-16 19:00:00,71.5,61.6,29.74,West,276,5.0,13.0,71,0.00,,,0.05,VWS V14.01,2013-09-16 17:00:00,
2013-09-16 19:04:00,71.7,61.4,29.74,WNW,290,12.0,13.0,70,0.00,,,0.05,VWS V14.01,2013-09-16 17:04:00,
2013-09-16 19:09:00,71.4,61.5,29.74,NW,304,1.0,6.0,71,0.00,,,0.05,VWS V14.01,2013-09-16 17:09:00,
2013-09-16 19:10:00,71.3,61.4,29.74,WNW,298,4.0,10.0,71,0.00,,,0.05,VWS V14.01,2013-09-16 17:10:00,
2013-09-16 19:14:00,71.3,61.4,29.74,WNW,284,6.0,10.0,71,0.00,,,0.05,VWS V14.01,2013-09-16 17:14:00,
2013-09-16 19:19:00,71.2,61.3,29.74,WNW,301,4.0,7.0,71,0.00,,,0.05,VWS V14.01,2013-09-16 17:19:00,
2013-09-16 19:20:00,71.1,61.6,29.74,WNW,290,0.0,10.0,72,0.00,,,0.05,VWS V14.01,2013-09-16 17:20:00,
2013-09-16 19:24:00,71.1,61.2,29.74,NW,323,3.0,9.0,71,0.00,,,0.05,VWS V14.01,2013-09-16 17:24:00,
2013-09-16 19:29:00,71.1,61.6,29.74,NW,323,2.0,7.0,72,0.00,,,0.05,VWS V14.01,2013-09-16 17:29:00,
2013-09-16 19:30:00,71.0,61.5,29.75,NW,305,3.0,9.0,72,0.00,,,0.05,VWS V14.01,2013-09-16 17:30:00,
2013-09-16 19:34:00,71.0,61.5,29.74,WNW,297,7.0,9.0,72,0.00,,,0.05,VWS V14.01,2013-09-16 17:34:00,
2013-09-16 19:39:00,70.9,61.4,29.75,WNW,288,6.0,6.0,72,0.00,,,0.05,VWS V14.01,2013-09-16 17:39:00,
2013-09-16 19:40:00,70.9,61.8,29.74,NW,313,6.0,14.0,73,0.00,,,0.05,VWS V14.01,2013-09-16 17:40:00,
2013-09-16 19:44:00,71.0,61.9,29.75,WNW,287,5.0,14.0,73,0.00,,,0.05,VWS V14.01,2013-09-16 17:44:00,
2013-09-16 19:49:00,70.8,61.7,29.74,WNW,302,7.0,10.0,73,0.00,,,0.05,VWS V14.01,2013-09-16 17:49:00,
2013-09-16 19:50:00,70.6,61.9,29.74,WNW,296,4.0,10.0,74,0.00,,,0.05,VWS V14.01,2013-09-16 17:50:00,
2013-09-16 19:54:00,70.7,62.0,29.74,NW,323,6.0,10.0,74,0.00,,,0.05,VWS V14.01,2013-09-16 17:54:00,
2013-09-16 19:59:00,70.6,61.9,29.74,NW,309,4.0,7.0,74,0.00,,,0.05,VWS V14.01,2013-09-16 17:59:00,
2013-09-16 20:00:00,70.5,61.8,29.74,WNW,303,4.0,9.0,74,0.00,,,0.05,VWS V14.01,2013-09-16 18:00:00,
2013-09-16 20:04:00,70.5,61.8,29.74,WNW,294,5.0,7.0,74,0.00,,,0.05,VWS V14.01,2013-09-16 18:04:00,
2013-09-16 20:09:00,70.5,62.2,29.74,NW,305,3.0,9.0,75,0.00,,,0.05,VWS V14.01,2013-09-16 18:09:00,
2013-09-16 20:10:00,70.5,62.2,29.74,WNW,298,2.0,9.0,75,0.00,,,0.05,VWS V14.01,2013-09-16 18:10:00,
2013-09-16 20:14:00,70.5,62.2,29.74,WNW,298,1.0,9.0,75,0.00,,,0.05,VWS V14.01,2013-09-16 18:14:00,
2013-09-16 20:19:00,70.4,62.1,29.74,NW,306,5.0,5.0,75,0.00,,,0.05,VWS V14.01,2013-09-16 18:19:00,
2013-09-16 20:20:00,70.3,62.4,29.75,WNW,292,6.0,7.0,76,0.00,,,0.05,VWS V14.01,2013-09-16 18:20:00,
2013-09-16 20:24:00,70.3,62.0,29.75,WNW,302,2.0,6.0,75,0.00,,,0.05,VWS V14.01,2013-09-16 18:24:00,
2013-09-16 20:29:00,70.4,62.5,29.74,WNW,298,6.0,7.0,76,0.00,,,0.05,VWS V14.01,2013-09-16 18:29:00,
2013-09-16 20:30:00,70.5,62.6,29.75,WNW,300,2.0,10.0,76,0.00,,,0.05,VWS V14.01,2013-09-16 18:30:00,
2013-09-16 20:34:00,70.5,62.6,29.75,WNW,300,6.0,10.0,76,0.00,,,0.05,VWS V14.01,2013-09-16 18:34:00,
2013-09-16 20:39:00,70.5,62.6,29.75,WNW,290,8.0,10.0,76,0.00,,,0.05,VWS V14.01,2013-09-16 18:39:00,
2013-09-16 20:40:00,70.5,62.6,29.75,WNW,292,3.0,11.0,76,0.00,,,0.05,VWS V14.01,2013-09-16 18:40:00,
2013-09-16 20:44:00,70.5,62.6,29.75,WNW,297,7.0,10.0,76,0.00,,,0.05,VWS V14.01,2013-09-16 18:44:00,
2013-09-16 20:49:00,70.5,62.6,29.75,NW,314,4.0,5.0,76,0.00,,,0.05,VWS V14.01,2013-09-16 18:49:00,
2013-09-16 20:50:00,70.4,62.8,29.75,WNW,291,0.0,7.0,77,0.00,,,0.05,VWS V14.01,2013-09-16 18:50:00,
2013-09-16 20:54:00,70.4,62.8,29.75,West,260,3.0,7.0,77,0.00,,,0.05,VWS V14.01,2013-09-16 18:54:00,
2013-09-16 20:59:00,70.4,62.8,29.75,WNW,298,10.0,10.0,77,0.00,,,0.05,VWS V14.01,2013-09-16 18:59:00,
2013-09-16 21:00:00,70.4,62.8,29.75,WNW,284,9.0,10.0,77,0.00,,,0.05,VWS V14.01,2013-09-16 19:00:00,
2013-09-16 21:04:00,70.4,62.8,29.75,West,278,4.0,10.0,77,0.00,,,0.05,VWS V14.01,2013-09-16 19:04:00,
2013-09-16 21:09:00,70.4,62.8,29.74,WNW,303,4.0,11.0,77,0.00,,,0.05,VWS V14.01,2013-09-16 19:09:00,
2013-09-16 21:10:00,70.4,62.8,29.75,WNW,298,5.0,11.0,77,0.00,,,0.05,VWS V14.01,2013-09-16 19:10:00,
2013-09-16 21:14:00,70.3,63.1,29.75,WNW,290,8.0,11.0,78,0.00,,,0.05,VWS V14.01,2013-09-16 19:14:00,
2013-09-16 21:19:00,70.3,62.8,29.74,WNW,288,10.0,10.0,77,0.00,,,0.05,VWS V14.01,2013-09-16 19:19:00,
2013-09-16 21:20:00,70.4,63.2,29.75,West,276,10.0,11.0,78,0.00,,,0.05,VWS V14.01,2013-09-16 19:20:00,
2013-09-16 21:24:00,70.3,63.1,29.75,WNW,294,4.0,11.0,78,0.00,,,0.05,VWS V14.01,2013-09-16 19:24:00,
2013-09-16 21:29:00,70.5,63.0,29.75,WNW,282,9.0,10.0,77,0.00,,,0.05,VWS V14.01,2013-09-16 19:29:00,
2013-09-16 21:30:00,70.6,62.7,29.75,West,279,4.0,10.0,76,0.00,,,0.05,VWS V14.01,2013-09-16 19:30:00,
2013-09-16 21:34:00,70.6,63.0,29.75,WNW,285,5.0,10.0,77,0.00,,,0.05,VWS V14.01,2013-09-16 19:34:00,
2013-09-16 21:39:00,70.6,62.7,29.75,West,279,4.0,6.0,76,0.00,,,0.05,VWS V14.01,2013-09-16 19:39:00,
2013-09-16 21:40:00,70.7,62.4,29.75,WNW,284,5.0,9.0,75,0.00,,,0.05,VWS V14.01,2013-09-16 19:40:00,
2013-09-16 21:44:00,70.6,62.3,29.75,West,280,2.0,8.0,75,0.00,,,0.05,VWS V14.01,2013-09-16 19:44:00,
2013-09-16 21:49:00,70.7,62.4,29.75,West,281,4.0,7.0,75,0.00,,,0.05,VWS V14.01,2013-09-16 19:49:00,
2013-09-16 21:50:00,70.7,62.0,29.75,West,276,3.0,7.0,74,0.00,,,0.05,VWS V14.01,2013-09-16 19:50:00,
2013-09-16 21:54:00,70.8,62.1,29.75,West,276,3.0,7.0,74,0.00,,,0.05,VWS V14.01,2013-09-16 19:54:00,
2013-09-16 21:59:00,70.6,61.9,29.75,West,276,4.0,4.0,74,0.00,,,0.05,VWS V14.01,2013-09-16 19:59:00,
2013-09-16 22:00:00,70.5,61.4,29.75,West,265,5.0,8.0,73,0.00,,,0.05,VWS V14.01,2013-09-16 20:00:00,
2013-09-16 22:04:00,70.5,61.4,29.75,West,266,4.0,6.0,73,0.00,,,0.05,VWS V14.01,2013-09-16 20:04:00,
2013-09-16 22:09:00,70.6,61.5,29.75,WNW,283,4.0,9.0,73,0.00,,,0.05,VWS V14.01,2013-09-16 20:09:00,
2013-09-16 22:10:00,70.8,61.7,29.75,West,281,7.0,12.0,73,0.00,,,0.05,VWS V14.01,2013-09-16 20:10:00,
2013-09-16 22:14:00,70.8,61.7,29.75,WNW,294,9.0,12.0,73,0.00,,,0.05,VWS V14.01,2013-09-16 20:14:00,
2013-09-16 22:19:00,71.0,61.5,29.76,WNW,285,10.0,16.0,72,0.00,,,0.05,VWS V14.01,2013-09-16 20:19:00,
2013-09-16 22:20:00,71.1,61.2,29.75,West,266,15.0,17.0,71,0.00,,,0.05,VWS V14.01,2013-09-16 20:20:00,
2013-09-16 22:24:00,71.1,61.6,29.75,WNW,286,4.0,16.0,72,0.00,,,0.05,VWS V14.01,2013-09-16 20:24:00,
2013-09-16 22:29:00,71.1,61.2,29.75,WNW,285,10.0,15.0,71,0.00,,,0.05,VWS V14.01,2013-09-16 20:29:00,
2013-09-16 22:30:00,71.0,61.5,29.75,West,279,8.0,17.0,72,0.00,,,0.05,VWS V14.01,2013-09-16 20:30:00,
2013-09-16 22:34:00,71.0,61.5,29.76,WNW,284,11.0,17.0,72,0.00,,,0.05,VWS V14.01,2013-09-16 20:34:00,
2013-09-16 22:40:00,70.9,61.4,29.75,West,279,4.0,13.0,72,0.00,,,0.05,VWS V14.01,2013-09-16 20:40:00,
2013-09-16 22:45:00,70.8,62.1,29.75,WNW,284,5.0,13.0,74,0.00,,,0.05,VWS V14.01,2013-09-16 20:45:00,
2013-09-16 22:49:00,70.6,62.3,29.75,West,275,4.0,13.0,75,0.00,,,0.05,VWS V14.01,2013-09-16 20:49:00,
2013-09-16 22:50:00,70.6,62.7,29.75,West,278,9.0,13.0,76,0.00,,,0.05,VWS V14.01,2013-09-16 20:50:00,
2013-09-16 22:55:00,70.6,62.3,29.75,NW,306,6.0,13.0,75,0.00,,,0.05,VWS V14.01,2013-09-16 20:55:00,
2013-09-16 23:00:00,70.6,62.7,29.75,West,281,13.0,15.0,76,0.00,,,0.05,VWS V14.01,2013-09-16 21:00:00,
2013-09-16 23:05:00,70.5,62.6,29.75,West,275,10.0,16.0,76,0.00,,,0.05,VWS V14.01,2013-09-16 21:05:00,
2013-09-16 23:10:00,70.5,63.0,29.75,WNW,298,6.0,10.0,77,0.00,,,0.05,VWS V14.01,2013-09-16 21:10:00,
2013-09-16 23:15:00,70.4,62.8,29.74,WNW,286,4.0,10.0,77,0.00,,,0.05,VWS V14.01,2013-09-16 21:15:00,
2013-09-16 23:20:00,70.3,62.8,29.75,NW,306,9.0,9.0,77,0.00,,,0.05,VWS V14.01,2013-09-16 21:20:00,
2013-09-16 23:25:00,70.3,62.4,29.75,West,275,16.0,17.0,76,0.00,,,0.05,VWS V14.01,2013-09-16 21:25:00,
2013-09-16 23:30:00,70.5,61.4,29.75,WNW,292,10.0,19.0,73,0.00,,,0.05,VWS V14.01,2013-09-16 21:30:00,
2013-09-16 23:35:00,70.5,61.0,29.75,West,266,13.0,19.0,72,0.00,,,0.05,VWS V14.01,2013-09-16 21:35:00,
2013-09-16 23:40:00,70.6,60.0,29.75,WNW,290,7.0,18.0,69,0.00,,,0.05,VWS V14.01,2013-09-16 21:40:00,
2013-09-16 23:43:00,70.7,60.0,29.75,NW,312,8.0,16.0,69,0.00,,,0.05,VWS V14.01,2013-09-16 21:43:00,
2013-09-16 23:48:00,70.7,60.0,29.75,WNW,303,6.0,17.0,69,0.00,,,0.05,VWS V14.01,2013-09-16 21:48:00,
2013-09-16 23:50:00,70.6,60.0,29.75,WNW,290,13.0,17.0,69,0.00,,,0.05,VWS V14.01,2013-09-16 21:50:00,
2013-09-16 23:53:00,70.6,60.0,29.75,NW,304,6.0,17.0,69,0.00,,,0.05,VWS V14.01,2013-09-16 21:53:00,
2013-09-16 23:58:00,70.5,60.3,29.75,WNW,285,10.0,13.0,70,0.00,,,0.05,VWS V14.01,2013-09-16 21:58:00,